Flag for China Weather past 2 weeks in Tsingtao, Shandong, China

Now
37 °F

Clear.


Feels Like: 35 °F
Forecast: 33 / 46 °F
Wind: 3 mph from South

Location: Qingdao Airport

Current Time: Dec 23, 2014 at 4:03:48 AM

Latest Report: Dec 23, 2014 at 3:00 AM


Visibility: 4 mi

Pressure: 30.27 "Hg

Humidity: 33%

Dew point: 10 °F

Location of TsingtaoLocation

Historic Weather in Tsingtao — Graph

°F

Tsingtao temperature yesterday

Maximum temperature yesterday: 46 °F (at 2:00 PM)
Minimum temperature yesterday: 25 °F (at 2:00 AM)
Average temperature yesterday: 33 °F

Past Weeks' High & Low Weather Summary

 TemperatureHumidityPressure
High48 °F (Dec 14, 1:00 PM)87% (Dec 8, 8:00 AM)30.66 "Hg (Dec 8, 8:00 AM)
Low21 °F (Dec 12, 6:00 AM)13% (Dec 14, 1:00 PM)30.12 "Hg (Dec 19, 2:00 PM)
Average33 °F50%30.39 "Hg
* Reported Dec 8 3:00 AM — Dec 23 3:00 AM, Tsingtao, Weather by CustomWeather, © 2014

Note: Actual official high and low records may vary slightly from our data, if they occured in-between our weather recording intervals... More about our weather records

Advertising

Tsingtao weather history for previous 24 hours

 ConditionsComfort  
Time TempWeatherWind HumidityBarometerVisibility
3:00 AM
Dec 23
37 °FClear.3 mph33%30.27 "Hg4 mi
2:00 AM36 °FClear.6 mph38%30.30 "Hg4 mi
1:00 AM27 °FClear.6 mph74%30.30 "Hg4 mi
12:00 AM27 °FClear.1 mph74%30.30 "Hg4 mi
11:00 PM
Dec 22
28 °FClear.1 mph64%30.30 "Hg4 mi
10:00 PM28 °FClear.1 mph64%30.30 "Hg4 mi
9:00 PM28 °FClear.1 mph59%30.30 "Hg10 mi
8:00 PM30 °FClear.1 mph55%30.30 "Hg10 mi
7:00 PM34 °FClear.1 mph41%30.30 "Hg10 mi
6:00 PM36 °FClear.3 mph41%30.30 "Hg10 mi
5:00 PM41 °FClear.1 mph22%30.30 "Hg10 mi
4:00 PM45 °FSunny.3 mph18%30.30 "Hg10 mi
3:00 PM46 °FPassing clouds.3 mph17%30.30 "HgN/A
2:00 PM46 °FPassing clouds.6 mph17%30.30 "HgN/A
1:00 PM45 °FPassing clouds.6 mph18%30.30 "HgN/A
12:00 PM43 °FPassing clouds.3 mph21%30.33 "HgN/A
11:00 AM39 °FPassing clouds.3 mph24%30.33 "HgN/A
10:00 AM36 °FPassing clouds.6 mph25%30.36 "HgN/A
9:00 AM34 °FPassing clouds.3 mph27%30.33 "HgN/A
8:00 AM27 °FSunny.1 mph46%30.33 "Hg10 mi
7:00 AM27 °FClear.1 mph39%30.33 "Hg10 mi
6:00 AM25 °FClear.1 mph46%30.33 "Hg10 mi
5:00 AM25 °FPassing clouds.3 mph46%30.33 "HgN/A
4:00 AM25 °FClear.1 mph42%30.33 "Hg10 mi
Weather by CustomWeather, © 2014

See weather overviewHow to use our weather pages